Kevin Corona

Scout - Monterrey
3 Apr 2027
Samstag
Verarbeitung

Persönlichkeit

Anpassungsfähigkeit (16) Ehrgeiz (14) Kontroverse (16) Loyalität (11) Druck (2) Professionalität (2) Fairness (4) Temperament (6)

Profil

Trainerstil Demokratisch
Lizenz Kontinentale C
Entschlossenheit 13
Menschenführung 5
Motivation 12
Disziplin 8
Arbeitszufriedenheit
50%
Ermüdung
0%
Rolle Scout
Gehalt 17.1K p/W
Vertrag 14.03.2029

Leistung

Verhalten Normal
Trainingseffektivität
18%
Spielerentwicklung
35%
Verletzungsprävention
35%
Taktische Umsetzung
30%

Letzte Ereignisse

Spieler begutachtet jetzt
Nahm an einer Scouting-Besprechung teil jetzt
Nahm an einer Scouting-Besprechung teil jetzt
Spieler begutachtet jetzt
Spieler begutachtet jetzt
Spieler begutachtet jetzt
Spieler begutachtet 7T her
Spieler begutachtet 7T her

Aktuell beobachtet

199
Spieler Verein Status Fähigkeit Vertrauen Beobachtet Zuletzt beobachtet Letzte Stimme
Ozziel Herrera Tigres Aktiv 135 / 121 40% 1 02.04.2027 -
Harry Leonard Peterborough United Aktiv 98 / 97 40% 1 02.04.2027 -
Amos Inusah Wa All Stars Aktiv 121 / 119 40% 2 01.04.2027 -
Fabrizio Cavegn Bristol Rovers Aktiv 124 / 111 40% 1 01.04.2027 -
Ashkan Shojaei Siah Jamegan Aktiv 145 / 121 40% 6 31.03.2027 -
Armel Bella-Kotchap Venezia Aktiv 137 / 142 40% 3 31.03.2027 -
Mathias Jørgensen Blackburn Rovers Aktiv 104 / 100 40% 2 31.03.2027 -
Facundo Garcés Alavés Aktiv 139 / 148 40% 1 31.03.2027 -
Wagner Pina Trabzonspor Aktiv 134 / 115 40% 1 30.03.2027 -
Ramón Juárez Club America Aktiv 139 / 147 40% 1 30.03.2027 -
Matteo Lovato Padova Aktiv 112 / 140 40% 1 29.03.2027 -
Lukáš Červ Viktoria Plzen Aktiv 131 / 148 40% 1 29.03.2027 -
Malik Mothersille Stockport County Aktiv 130 / 99 40% 5 27.03.2027 -
Cian Ashford Cardiff City Aktiv 113 / 122 40% 1 27.03.2027 -
Ethan Williams Peterborough United Aktiv 116 / 105 40% 2 26.03.2027 -
Omar Campos Cruz Azul Aktiv 115 / 114 40% 1 26.03.2027 -
Luis Vázquez Birmingham Aktiv 141 / 129 40% 1 26.03.2027 -
Efraín Álvarez Guadalajara Aktiv 127 / 125 40% 8 25.03.2027 -
Duk Atlas Aktiv 117 / 111 40% 1 25.03.2027 -
Bojan Radulović Huddersfield Town Aktiv 98 / 131 40% 2 24.03.2027 -
Tamble Monteiro Rio Ave Aktiv 127 / 104 40% 2 23.03.2027 -
Florián Monzón Atlas Aktiv 131 / 133 40% 2 22.03.2027 -
Max Conway Bolton Wanderers Aktiv 126 / 101 40% 1 22.03.2027 -
Teboho Tau Ajax Cape Town Aktiv 111 / 124 40% 1 22.03.2027 -
Kauã Elias Shakhtar Aktiv 116 / 135 40% 1 21.03.2027 -
Adnan Courtois KV Oostende Aktiv 112 / 119 40% 4 20.03.2027 -
Dom Ballard Leyton Orient Aktiv 129 / 119 40% 6 20.03.2027 -
Bryan González Guadalajara Aktiv 122 / 136 40% 1 19.03.2027 -
Mduduzi Shabalala Kaizer Chiefs Aktiv 109 / 101 40% 1 19.03.2027 -
Itumeleng Zungu Free State Stars Aktiv 96 / 131 40% 1 19.03.2027 -
Gonçalo Oliveira Benfica Aktiv 112 / 99 40% 1 19.03.2027 -
Mattia Viti Sampdoria Aktiv 135 / 121 40% 2 16.03.2027 -
Brian Gutiérrez Guadalajara Aktiv 121 / 131 40% 2 15.03.2027 -
Rumarn Burrell Queens Park Rangers Aktiv 129 / 121 40% 1 15.03.2027 -
Lucas Duarte Felgueiras Aktiv 110 / 109 40% 1 15.03.2027 -
Mfundo Vilakazi Kaizer Chiefs Aktiv 117 / 115 40% 1 15.03.2027 -
Gerónimo Rivera Al Wahda Aktiv 118 / 120 40% 1 14.03.2027 -
Mohamed Ali Ben Romdhane Al Ahly Aktiv 112 / 117 40% 2 13.03.2027 -
Sergio Barreto Pachuca Aktiv 128 / 123 40% 2 13.03.2027 -
Alex Robertson Cardiff City Aktiv 140 / 122 40% 1 12.03.2027 -
Siyanda Ndlovu Hearts of Oak Aktiv 100 / 137 40% 1 12.03.2027 -
Ramadan Mohsen Zamalek Aktiv 124 / 105 40% 1 12.03.2027 -
Lorent Tolaj Plymouth Argyle Aktiv 115 / 122 40% 3 09.03.2027 -
Diego Valencia Gornik Leczna Aktiv 96 / 106 40% 1 09.03.2027 -
Jordan Holsgrove Estoril Praia Aktiv 121 / 123 40% 2 08.03.2027 -
Jesús Orozco Chiquete Cruz Azul Aktiv 133 / 139 40% 1 08.03.2027 -
Erik Lira Cruz Azul Aktiv 149 / 122 40% 5 07.03.2027 -
Nail Umyarov Spartak Moscow Aktiv 116 / 119 40% 1 07.03.2027 -
Pedro Henrique Shakhtar Aktiv 133 / 143 40% 1 06.03.2027 -
Eliás Montiel Pachuca Aktiv 123 / 146 40% 2 04.03.2027 -
Korede Osundina Casa Pia Aktiv 112 / 110 40% 2 04.03.2027 -
Sebastián Cáceres Club America Aktiv 146 / 122 40% 2 04.03.2027 -
Nacer Tielemans Mouscron Aktiv 131 / 131 40% 2 02.03.2027 -
Percy Erasmus SuperSport United Aktiv 111 / 113 40% 3 01.03.2027 -
Luka Romero Cruz Azul Aktiv 125 / 125 40% 1 01.03.2027 -
Mathias Kvistgaarden Norwich City Aktiv 130 / 120 40% 3 28.02.2027 -
Adrian Benedyczak Kasimpasa Aktiv 126 / 121 40% 1 27.02.2027 -
Amir Hossein Hosseinzadeh Tractor Aktiv 117 / 109 40% 2 26.02.2027 -
Ali Youssef Apollon Aktiv 138 / 131 40% 1 26.02.2027 -
Brayan León Mamelodi Sundowns Aktiv 102 / 134 40% 4 25.02.2027 -
Matteo Dams Club Brugge Aktiv 133 / 145 40% 2 23.02.2027 -
Bernardo Vital Jagiellonia Aktiv 130 / 143 40% 1 23.02.2027 -
Jalen Blesa Rio Ave Aktiv 132 / 125 40% 1 23.02.2027 -
Andrea Carboni Monza Aktiv 133 / 121 40% 2 21.02.2027 -
Festy Ebosele Basaksehir Aktiv 123 / 118 40% 1 21.02.2027 -
Aleksa Terzić Frosinone Aktiv 133 / 119 40% 1 19.02.2027 -
Vinicius Tobias Shakhtar Aktiv 120 / 119 40% 1 17.02.2027 -
Mihailo Ivanović Millwall Aktiv 128 / 125 40% 2 15.02.2027 -
Roger Hinojo Espanyol Aktiv 111 / 130 40% 1 15.02.2027 -
Samuele Birindelli Monza Aktiv 116 / 116 40% 1 12.02.2027 -
Luther Billiat Ajax Cape Town Aktiv 115 / 130 40% 1 11.02.2027 -
Thierry Rendall Correia Venezia Aktiv 150 / 121 40% 1 11.02.2027 -
Iker Benito Queretaro Aktiv 118 / 123 40% 2 10.02.2027 -
Rafita Málaga Aktiv 105 / 127 40% 1 10.02.2027 -
Stanley Mills Oxford United Aktiv 131 / 111 40% 2 08.02.2027 -
Alexandr Sojka Viktoria Plzen Aktiv 106 / 112 40% 1 08.02.2027 -
Myles Peart-Harris Plymouth Argyle Aktiv 123 / 116 40% 1 07.02.2027 -
Danil Glebov Dinamo Moscow Aktiv 123 / 117 40% 1 05.02.2027 -
Luke Thomas Leicester City Aktiv 130 / 137 40% 1 05.02.2027 -
Diego Costa Krasnodar Aktiv 123 / 144 40% 3 03.02.2027 -
Freddie Potts Club Brugge Aktiv 139 / 134 40% 1 03.02.2027 -
Tyreece Campbell Charlton Athletic Aktiv 117 / 137 40% 1 01.02.2027 -
Nahuel Ulariaga Al Ahli Aktiv 128 / 127 40% 2 29.01.2027 -
Brayan León Mamelodi Sundowns Verloren 116 / 113 40% 2 29.01.2027 -
Alan Velasco Boca Juniors Aktiv 139 / 137 40% 7 28.01.2027 -
Marezi Portsmouth Aktiv 120 / 116 40% 1 28.01.2027 -
Ashkan Hajsafi Gostaresh Foulad Aktiv 131 / 137 40% 3 27.01.2027 -
Timothy Kompany Mouscron Aktiv 143 / 122 40% 1 08.01.2027 -
Ayrton Costa Boca Juniors Aktiv 133 / 132 40% 2 30.12.2026 -
Santiago González Tigre Aktiv 122 / 128 40% 1 30.12.2026 -
Henrique Araújo Casa Pia Aktiv 122 / 114 40% 2 29.12.2026 -
Ryotaro Araki Sint-Truiden Aktiv 106 / 118 40% 1 29.12.2026 -
Josh Keeley Luton Town Aktiv 125 / 115 40% 3 27.12.2026 -
Wandile Duba Bidvest Wits Aktiv 96 / 101 40% 1 27.12.2026 -
Lucas Varaldo Central Córdoba SdE Aktiv 113 / 126 40% 2 24.12.2026 -
Sam Tickle Wigan Athletic Aktiv 136 / 135 40% 2 23.12.2026 -
Anthony Patterson Wrexham Aktiv 145 / 134 40% 2 23.12.2026 -
Rubens Dinamo Moscow Abgelehnt 142 / 129 40% 1 23.12.2026 Mehr Infos nötig
Esteban Glellel Shonan Bellmare Aktiv 124 / 136 40% 4 21.12.2026 -
Evidence Billiat Ajax Cape Town Aktiv 94 / 121 40% 3 21.12.2026 -
Carlos Paraco Metalist Aktiv 117 / 117 40% 1 20.12.2026 -
Alexandr Sojka Viktoria Plzen Verloren 130 / 126 40% 1 20.12.2026 -
Juan Cruz de los Santos Nacional Aktiv 128 / 116 40% 3 18.12.2026 -
Luis Ingolotti Atlético Tucumán Aktiv 131 / 121 40% 3 18.12.2026 -
Egoitz Arana Real Sociedad Aktiv 93 / 125 40% 2 18.12.2026 -
Abu Kamara Portsmouth Aktiv 101 / 105 40% 1 18.12.2026 -
Aidomo Emakhu Oxford United Aktiv 103 / 140 40% 1 16.12.2026 -
Beau Reus Waasland-Beveren Aktiv 107 / 118 40% 1 14.12.2026 -
George Wickens Lincoln City Aktiv 124 / 119 40% 1 14.12.2026 -
Exequiel Zeballos Boca Juniors Aktiv 125 / 126 40% 6 10.12.2026 -
Alejandro Piedrahita Deportivo Pereira Verloren 127 / 114 40% 5 10.12.2026 -
Agustín Ruberto River Plate Verloren 121 / 125 40% 3 09.12.2026 -
Sebastián Meza Huracán Aktiv 139 / 135 40% 3 07.12.2026 -
Pol Tristán Bradford City Aktiv 117 / 107 40% 1 07.12.2026 -
Agustín Venezia Iquique Aktiv 113 / 120 40% 3 06.12.2026 -
Iwan Morgan Grimsby Town Aktiv 89 / 98 40% 1 06.12.2026 -
Ramiro Ruiz Rodríguez Atlético Tucumán Aktiv 125 / 115 40% 1 06.12.2026 -
Santiago Silva Boston River Aktiv 109 / 124 40% 2 03.12.2026 -
Lukas Jensen Millwall Aktiv 134 / 104 40% 1 03.12.2026 -
Ilay Camara Anderlecht Aktiv 111 / 136 40% 2 30.11.2026 -
Sebastian Hernandez Cortulua Aktiv 123 / 128 40% 1 30.11.2026 -
Michael Cooper Sheffield United Aktiv 142 / 137 40% 1 30.11.2026 -
Pablo Ramón Racing Club Aktiv 128 / 141 40% 1 30.11.2026 -
Ştefan Baiaram Universitatea Craiova Aktiv 142 / 123 40% 2 27.11.2026 -
Luciano Jachfe Nueva Chicago Aktiv 109 / 105 40% 3 26.11.2026 -
Felipe Parra Envigado Aktiv 111 / 111 40% 3 24.11.2026 -
Jamie Cumming Oxford United Aktiv 136 / 124 40% 2 23.11.2026 -
Jerome Karelse Golden Arrows Aktiv 91 / 102 40% 1 23.11.2026 -
Job Ochieng Real Sociedad Aktiv 118 / 108 40% 2 21.11.2026 -
Sam Greenwood Bristol City Aktiv 102 / 131 40% 1 17.11.2026 -
Felipe Zenobio Tigre Aktiv 136 / 132 40% 1 16.11.2026 -
Lucio Castillo Colegiales Aktiv 96 / 112 40% 2 13.11.2026 -
Felipe Fernández Vorskla Aktiv 116 / 96 40% 1 12.11.2026 -
Rok Zajc NK Domzale Aktiv 102 / 127 40% 1 10.11.2026 -
Itumeleng Tau Ajax Cape Town Aktiv 100 / 133 40% 1 10.11.2026 -
Tomás Ahumada Audax Italiano Aktiv 120 / 117 40% 1 10.11.2026 -
Francisco Salerno Defensores Unidos Aktiv 113 / 99 40% 1 10.11.2026 -
Dilan Godoy Vélez Aktiv 116 / 126 40% 2 08.11.2026 -
Miguel Acosta Argentinos Juniors Aktiv 110 / 97 40% 1 05.11.2026 -
Yoshan Valois Lanús Aktiv 126 / 116 40% 1 03.11.2026 Mehr Infos nötig
Enzo Vázquez Central Norte Aktiv 102 / 114 40% 1 02.11.2026 -
Nahuel Manganelli Dinamo Batumi Aktiv 122 / 106 40% 1 01.11.2026 -
Misael Sosa Godoy Cruz Aktiv 113 / 112 40% 1 30.10.2026 -
Jano Coronel Quilmes Aktiv 112 / 110 40% 1 30.10.2026 -
Federico Varese Racing Aktiv 99 / 119 40% 1 29.10.2026 -
Jakub Stolarczyk Leicester City Aktiv 140 / 117 40% 1 29.10.2026 -
Facundo Vila Estudiantes Aktiv 107 / 105 40% 1 27.10.2026 -
Nicolás Sumavil Platense Aktiv 105 / 105 40% 2 26.10.2026 -
Cristopher Varela Deportivo La Guaira Aktiv 113 / 122 40% 1 26.10.2026 -
Arkaitz Mariezkurrena Real Sociedad Aktiv 98 / 103 40% 1 26.10.2026 -
Kevin Álvarez Club America Aktiv 130 / 125 40% 2 21.10.2026 -
Marlon Gomes Shakhtar Abgelehnt 139 / 153 40% 2 21.10.2026 Mehr Infos nötig
Francisco Bonfiglio Boston River Aktiv 111 / 112 40% 1 19.10.2026 -
Carlos Gugenheim Almirante Brown Aktiv 112 / 113 40% 1 18.10.2026 -
Agustín Lastra Estudiantes Aktiv 121 / 99 40% 1 16.10.2026 -
Esteban Obregón Montevideo City Torque Aktiv 114 / 119 40% 1 13.10.2026 -
Mauro Casoli Talleres Aktiv 90 / 90 40% 2 12.10.2026 -
Ivan Edson Veracruz Aktiv 123 / 141 40% 1 11.10.2026 -
Marcos López San Martín Aktiv 128 / 122 40% 1 11.10.2026 -
Caleb Yirenkyi Coventry City Aktiv 144 / 146 40% 1 10.10.2026 -
Patrick Preciado Deportivo Pasto Aktiv 91 / 114 40% 1 09.10.2026 -
Kevin Lomónaco Independiente Aktiv 127 / 139 40% 1 07.10.2026 -
Agustín Hausch Defensa y Justicia Aktiv 110 / 111 40% 1 05.10.2026 -
Joaquín Enrico San Telmo Aktiv 95 / 104 40% 1 03.10.2026 -
Patrick Schulte Columbus Crew Aktiv 110 / 118 40% 1 03.10.2026 -
Bénie Traoré New York City Aktiv 136 / 120 40% 1 03.10.2026 -
Xavier Biscayzacú Defensor Sporting Aktiv 133 / 119 40% 1 01.10.2026 -
Fernando Mimbacas Juventud Aktiv 123 / 120 40% 1 30.09.2026 -
Nahuel Galardi Maipú Aktiv 102 / 101 40% 1 29.09.2026 -
Victor Aznar Cádiz Aktiv 125 / 136 40% 1 26.09.2026 -
Gustavo Mantuan Zenit Aktiv 138 / 132 40% 1 26.09.2026 -
Juan Pablo Cisternas Antofagasta Aktiv 92 / 93 40% 1 24.09.2026 -
Juan Moreno Cerro Largo Aktiv 112 / 104 40% 1 24.09.2026 -
Fabrizio Correa Juventud Aktiv 112 / 125 40% 1 23.09.2026 -
Roman Celentano FC Cincinnati Aktiv 112 / 121 40% 1 23.09.2026 -
Conrad Wallem Valerenga Aktiv 147 / 109 40% 1 23.09.2026 -
Tomás Händel Crvena Zvezda Aktiv 115 / 129 40% 1 23.09.2026 -
Armindo Sieb Los Angeles Football Club Aktiv 132 / 120 40% 2 22.09.2026 -
Hiroto Taniguchi Kawasaki Frontale Aktiv 119 / 122 40% 1 21.09.2026 -
Gedson Fernandes Spartak Moscow Aktiv 151 / 125 40% 1 21.09.2026 -
Manuel Roffo Cerro Porteno Aktiv 124 / 127 40% 1 17.09.2026 -
Alejandro Alcalá Gabala Aktiv 75 / 82 40% 1 17.09.2026 -
Arturo Cipriani Astra Aktiv 161 / 158 40% 1 14.09.2026 -
Matías Dufour Sportivo Trinidense Aktiv 99 / 106 40% 1 13.09.2026 -
Mathías Bernatene Liverpool Montevideo Aktiv 92 / 90 40% 1 13.09.2026 -
Michy Fellaini KV Oostende Aktiv 112 / 133 40% 1 11.09.2026 -
Liel Abada Charlotte Football Club Aktiv 129 / 132 40% 1 11.09.2026 -
Liam Varela Veracruz Aktiv 132 / 119 40% 1 10.09.2026 -
Taiyo Koga Kashiwa Reysol Aktiv 147 / 144 40% 1 10.09.2026 -
Lautaro Amadé Defensa y Justicia Aktiv 104 / 128 40% 1 08.09.2026 -
Franco Carretero Deportivo Lara Aktiv 87 / 98 40% 1 08.09.2026 -
Frankarlos Benítez Caracas Aktiv 109 / 103 40% 1 07.09.2026 -
Marcos Cuenca Zaragoza Aktiv 86 / 98 40% 1 06.09.2026 -
Nəriman Axundzadə Columbus Crew Aktiv 116 / 126 40% 1 06.09.2026 -
Jeong Sang-Bin St. Louis CITY SC Aktiv 118 / 115 40% 1 02.09.2026 -
Talles Magno New York City Aktiv 128 / 125 40% 1 02.09.2026 -
Marcelo Fernández Libertad Aktiv 109 / 119 40% 1 31.08.2026 -
Camilo Durán Bloemfontein Celtic Aktiv 134 / 108 40% 1 24.08.2026 -
Pablo Campos Levante Aktiv 113 / 106 40% 1 02.08.2026 -